| time (UTC) | temp F | wind direction | speed knots | gust knots | rain 1hr in | rain 24hr in | rain mn in | humidity % | barometer mb |
| 20260507161546 | 54 | 205 | 0.0 | 0.0 | 0.00 | 0.04 | 0.01 | 55 | 1010.0 |
| 20260507160042 | 54 | 229 | 0.0 | 0.9 | 0.00 | 0.04 | 0.01 | 55 | 1010.1 |
| 20260507154537 | 54 | 252 | 0.0 | 3.5 | 0.00 | 0.04 | 0.01 | 55 | 1010.3 |
| 20260507153035 | 54 | 192 | 0.0 | 2.6 | 0.00 | 0.09 | 0.01 | 55 | 1010.5 |
| 20260507151519 | 54 | 14 | 0.0 | 1.7 | 0.00 | 0.09 | 0.01 | 57 | 1010.6 |
| 20260507150015 | 54 | 151 | 0.0 | 0.9 | 0.00 | 0.09 | 0.01 | 57 | 1010.7 |
| 20260507144510 | 53 | 244 | 0.0 | 0.9 | 0.00 | 0.09 | 0.01 | 57 | 1010.8 |
| 20260507143006 | 51 | 21 | 0.0 | 0.9 | 0.00 | 0.12 | 0.01 | 58 | 1011.0 |
| 20260507141524 | 51 | 5 | 0.0 | 0.9 | 0.00 | 0.12 | 0.01 | 57 | 1011.1 |
| 20260507140026 | 51 | 40 | 0.0 | 0.0 | 0.00 | 0.12 | 0.01 | 57 | 1011.1 |
| 20260507134516 | 50 | 230 | 0.0 | 0.9 | 0.01 | 0.12 | 0.01 | 50 | 1011.2 |
| 20260507133011 | 49 | 240 | 0.0 | 0.0 | 0.01 | 0.24 | 0.01 | 38 | 1011.3 |
| 20260507130019 | 48 | 42 | 0.0 | 0.0 | 0.01 | 0.24 | 0.01 | 26 | 1011.3 |
| 20260507124517 | 47 | 26 | 0.0 | 0.0 | 0.00 | 0.23 | 0.00 | 6 | 1011.4 |
| 20260507123018 | 46 | 24 | 0.0 | 0.0 | 0.00 | 0.28 | 0.00 | 1 | 1011.4 |
| 20260507120006 | 44 | 24 | 0.0 | 0.0 | 0.00 | 0.28 | 0.00 | 1 | 1011.3 |
| 20260507114501 | 43 | 63 | 0.0 | 0.0 | 0.00 | 0.28 | 0.00 | 1 | 1011.3 |
| 20260507113058 | 42 | 63 | 0.0 | 0.0 | 0.00 | 0.30 | 0.00 | 1 | 1011.2 |
| 20260507110050 | 40 | 36 | 0.0 | 0.0 | 0.00 | 0.30 | 0.00 | 1 | 1011.0 |
| 20260507104542 | 39 | 36 | 0.0 | 0.0 | 0.00 | 0.30 | 0.00 | 1 | 1011.0 |
| 20260507103035 | 39 | 36 | 0.0 | 0.0 | 0.00 | 0.32 | 0.00 | 1 | 1010.9 |
| 20260507100032 | 39 | 232 | 0.0 | 0.0 | 0.00 | 0.32 | 0.00 | 1 | 1010.6 |
| 20260507094522 | 39 | 232 | 0.0 | 0.0 | 0.00 | 0.32 | 0.00 | 1 | 1010.6 |
| 20260507093025 | 40 | 232 | 0.0 | 0.0 | 0.00 | 0.33 | 0.00 | 1 | 1010.5 |
| 20260507090111 | 42 | 232 | 0.0 | 0.0 | 0.00 | 0.33 | 0.00 | 1 | 1010.6 |
| 20260507084550 | 43 | 232 | 0.0 | 0.0 | 0.00 | 0.33 | 0.00 | 1 | 1010.7 |
| 20260507083046 | 44 | 232 | 0.0 | 0.0 | 0.00 | 0.33 | 0.00 | 1 | 1010.6 |
| 20260507080047 | 44 | 223 | 0.0 | 0.0 | 0.00 | 0.33 | 0.00 | 1 | 1010.6 |
| 20260507074543 | 45 | 256 | 0.0 | 0.0 | 0.00 | 0.33 | 0.00 | 1 | 1010.6 |
| 20260507073049 | 45 | 198 | 0.0 | 0.0 | 0.00 | 0.33 | 0.00 | 1 | 1010.6 |
| 20260507070043 | 45 | 225 | 0.0 | 0.0 | 0.00 | 0.33 | 0.00 | 1 | 1010.5 |
| 20260507064530 | 45 | 269 | 0.0 | 0.0 | 0.00 | 0.33 | 0.00 | 1 | 1010.5 |
| 20260507063028 | 46 | 38 | 0.0 | 0.9 | 0.00 | 0.33 | 0.00 | 1 | 1010.1 |
| 20260507060016 | 46 | 157 | 0.0 | 0.0 | 0.00 | 0.33 | 0.00 | 1 | 1009.8 |
| 20260507054508 | 47 | 84 | 0.0 | 0.0 | 0.00 | 0.33 | 0.00 | 1 | 1009.8 |
| 20260507053005 | 47 | 81 | 0.0 | 0.0 | 0.00 | 0.33 | 0.00 | 1 | 1009.7 |
| 20260507050045 | 46 | 239 | 0.0 | 0.0 | 0.00 | 0.33 | 0.00 | 1 | 1009.9 |
| 20260507044546 | 46 | 239 | 0.0 | 0.0 | 0.00 | 0.33 | 0.00 | 1 | 1010.1 |
| 20260507043042 | 46 | 239 | 0.0 | 0.0 | 0.00 | 0.33 | 0.33 | 1 | 1009.9 |
| 20260507040043 | 46 | 239 | 0.0 | 0.0 | 0.00 | 0.33 | 0.33 | 1 | 1009.7 |
| 20260507034538 | 46 | 239 | 0.0 | 0.0 | 0.00 | 0.33 | 0.33 | 1 | 1009.4 |
| 20260507033034 | 46 | 239 | 0.0 | 0.0 | 0.00 | 0.33 | 0.33 | 1 | 1009.3 |
| 20260507030018 | 47 | 239 | 0.0 | 0.0 | 0.00 | 0.33 | 0.33 | 1 | 1009.8 |
| 20260507024514 | 47 | 239 | 0.0 | 0.0 | 0.00 | 0.33 | 0.33 | 1 | 1010.0 |
| 20260507023010 | 47 | 239 | 0.0 | 0.0 | 0.00 | 0.33 | 0.33 | 1 | 1009.7 |
| 20260507020003 | 47 | 239 | 0.0 | 0.0 | 0.00 | 0.33 | 0.33 | 1 | 1009.9 |
| 20260507014615 | 47 | 239 | 0.0 | 0.0 | 0.00 | 0.33 | 0.33 | 1 | 1010.1 |
| 20260507013056 | 48 | 239 | 0.0 | 0.0 | 0.00 | 0.33 | 0.33 | 1 | 1010.0 |
| 20260507011653 | 48 | 239 | 0.0 | 0.0 | 0.00 | 0.33 | 0.33 | 1 | 1010.1 |
| 20260507010113 | 48 | 239 | 0.0 | 0.0 | 0.00 | 0.33 | 0.33 | 1 | 1010.0 |
| 20260507004555 | 48 | 239 | 0.0 | 0.0 | 0.00 | 0.33 | 0.33 | 1 | 1009.6 |
| 20260507003050 | 48 | 239 | 0.0 | 0.0 | 0.00 | 0.33 | 0.33 | 1 | 1009.6 |
| 20260507001648 | 48 | 239 | 0.0 | 0.0 | 0.00 | 0.33 | 0.33 | 1 | 1009.3 |
| 20260507000043 | 48 | 239 | 0.0 | 0.0 | 0.00 | 0.33 | 0.33 | 1 | 1009.3 |
| 20260506234537 | 48 | 238 | 0.0 | 0.0 | 0.00 | 0.33 | 0.33 | 1 | 1009.0 |
| 20260506233031 | 48 | 238 | 0.0 | 0.0 | 0.00 | 0.33 | 0.33 | 1 | 1008.9 |
| 20260506231629 | 49 | 245 | 0.0 | 0.0 | 0.00 | 0.33 | 0.33 | 1 | 1008.8 |
| 20260506230036 | 49 | 234 | 0.0 | 0.0 | 0.00 | 0.33 | 0.33 | 1 | 1008.6 |
| 20260506224535 | 49 | 279 | 0.0 | 0.0 | 0.00 | 0.33 | 0.33 | 1 | 1008.5 |
| 20260506223026 | 49 | 24 | 0.0 | 0.0 | 0.00 | 0.34 | 0.33 | 1 | 1008.1 |
| 20260506221620 | 49 | 238 | 0.0 | 0.0 | 0.00 | 0.34 | 0.33 | 1 | 1007.9 |
| 20260506220005 | 49 | 11 | 0.0 | 0.0 | 0.00 | 0.34 | 0.33 | 1 | 1007.9 |
| 20260506214502 | 50 | 315 | 0.0 | 0.0 | 0.00 | 0.34 | 0.33 | 1 | 1008.0 |
| 20260506213057 | 50 | 26 | 0.0 | 3.5 | 0.00 | 0.34 | 0.33 | 1 | 1007.8 |
| 20260506211553 | 50 | 228 | 0.0 | 0.0 | 0.00 | 0.34 | 0.33 | 1 | 1007.3 |
| 20260506210058 | 50 | 242 | 0.0 | 0.0 | 0.00 | 0.34 | 0.33 | 1 | 1007.1 |
| 20260506204553 | 50 | 265 | 0.0 | 0.0 | 0.00 | 0.34 | 0.33 | 1 | 1006.9 |
| 20260506203053 | 50 | 52 | 0.0 | 0.0 | 0.01 | 0.42 | 0.33 | 1 | 1006.6 |
| 20260506201607 | 51 | 17 | 0.0 | 0.0 | 0.02 | 0.42 | 0.33 | 1 | 1005.9 |
| 20260506200035 | 51 | 34 | 0.0 | 0.0 | 0.02 | 0.42 | 0.33 | 1 | 1006.0 |
| 20260506194540 | 51 | 60 | 0.0 | 0.0 | 0.02 | 0.42 | 0.33 | 1 | 1005.9 |
| 20260506193033 | 51 | 229 | 0.0 | 0.0 | 0.01 | 0.41 | 0.32 | 1 | 1005.9 |
| 20260506191526 | 52 | 38 | 0.0 | 0.0 | 0.00 | 0.40 | 0.31 | 1 | 1005.5 |
| 20260506190054 | 52 | 40 | 0.0 | 0.0 | 0.00 | 0.40 | 0.31 | 1 | 1005.2 |
| 20260506184553 | 53 | 24 | 0.0 | 0.9 | 0.00 | 0.40 | 0.31 | 1 | 1005.1 |
| 20260506183046 | 54 | 19 | 0.0 | 0.0 | 0.01 | 0.40 | 0.31 | 1 | 1005.0 |
| 20260506181541 | 56 | 250 | 0.0 | 0.0 | 0.01 | 0.40 | 0.31 | 1 | 1004.4 |
| 20260506180044 | 57 | 225 | 0.0 | 0.0 | 0.01 | 0.40 | 0.31 | 1 | 1004.3 |
| 20260506174540 | 59 | 213 | 0.0 | 0.9 | 0.01 | 0.40 | 0.31 | 1 | 1003.8 |
| 20260506173043 | 59 | 234 | 0.0 | 0.0 | 0.00 | 0.41 | 0.30 | 1 | 1003.6 |
| 20260506171543 | 59 | 155 | 0.0 | 0.0 | 0.00 | 0.41 | 0.30 | 1 | 1003.6 |
| 20260506170001 | 59 | 155 | 0.0 | 0.0 | 0.00 | 0.41 | 0.30 | 1 | 1003.7 |
| 20260506164556 | 59 | 254 | 0.0 | 0.0 | 0.00 | 0.41 | 0.30 | 1 | 1003.7 |
| 20260506163102 | 58 | 24 | 0.0 | 0.0 | 0.01 | 0.41 | 0.30 | 1 | 1003.8 |